Regional Weather Roundup
Issued by NWS

Home | Current Version | Previous Version | Graphics & Text | Print | Product List | Glossary On
Versions: 1 2 3 4 5 6 7 8 9 10 11 12 13 14 15 16 17 18 19 20 21 22 23 24 25 26 27 28 29 30 31 32 33 34 35 36 37 38 39 40 41 42 43 44 45 46 47 48 49 50
000
ASUS43 KLOT 192204
RWRIL

ILLINOIS REGIONAL WEATHER ROUNDUP
NATIONAL WEATHER SERVICE CHICAGO/ROMEOVILLE IL
500 PM CDT THU OCT 19 2017

NOTE: "FAIR" INDICATES FEW OR NO CLOUDS BELOW 12,000 FEET WITH NO
SIGNIFICANT WEATHER AND/OR OBSTRUCTIONS TO VISIBILITY.

* THESE STATIONS ARE NOT UNDER NWS QUALITY CONTROL. THEY ALSO MAY NOT
  REPORT WEATHER SUCH AS PRECIPITATION OR FOG.

ILZ001-002-007-009-015-016-024-192300-
NORTHWEST ILLINOIS

CITY           SKY/WX    TMP DP  RH WIND       PRES   REMARKS
MOLINE         SUNNY     74  50  42 S7        30.09F
STERLING*      CLOUDY    73  38  27 SE5         N/A
SAVANNA*       CLOUDY    72  34  24 S6        30.12S
$$

ILZ003-004-008-010-011-017-018-192300-
NORTH CENTRAL ILLINOIS

CITY           SKY/WX    TMP DP  RH WIND       PRES   REMARKS
ROCKFORD       PTSUNNY   70  32  24 SE7       30.15S
FREEPORT*      SUNNY     67  32  27 S5        30.15S
ROCHELLE*      CLOUDY    69  32  24 SE5       30.15S
DE KALB*       CLOUDY    67  36  32 SE8       30.16S
PERU*          SUNNY     72  38  29 SE8       30.14S
$$

ILZ005-006-012>014-019>023-192300-
NORTHEAST ILLINOIS

CITY           SKY/WX    TMP DP  RH WIND       PRES   REMARKS
CHICAGO-OHARE  CLOUDY    64  26  23 E9        30.16S
CHICAGO-MIDWAY PTSUNNY   65  24  21 E8        30.17S
AURORA         SUNNY     68  37  32 SE6       30.16S
LANSING*       MOSUNNY   65  36  33 E5        30.18S
JOLIET*        SUNNY     71  40  32 CALM      30.16S
WAUKEGAN       MOSUNNY   60  28  29 S9        30.15F
DUPAGE AIRPORT SUNNY     67  40  37 S6        30.15F
KANKAKEE*      CLOUDY    71  44  37 E3        30.17R
WHEELING       MOSUNNY   64  26  23 SE7       30.18S
MORRIS*        SUNNY     72  31  21 E5        30.14S
ROMEOVILLE*    MOSUNNY   69  35  28 SE3       30.16S
NORTHERLY ISL    N/A     61  42  49 E6          N/A
$$

LMZ740>746-192300-
SOUTHERN LAKE MICHIGAN

STATION/POSITION SKY/WX   TEMP    WIND        PRES    VSBY  WAVE
                          AIR SEA DIR/SP/G                  HT/PER
                          (F)     (DEG/KT/KT) (MB)    (MI)  (FT/S)
SOUTHERN BUOY              60 61  220/  8/  8 1021.6          1/ 4
WILMETTE HARBOR            59 58  150/  8/ 10   N/A           1/ 2
HARRISON CRIB              61     110/  6/  7   N/A
BURNHAM HARBOR             61     110/  6/  6   N/A
CALUMET HARBOR             60     100/  6/  7 1021.2F
BURNS HARBOR               61      60/  7/  8 1022.7S
MICHIGAN CITY              59      40/  2/  3   N/A
MICHIGAN CITY 6N           59 59  120/  2/  2   N/A           1/ 4
ST. JOSEPH                 61 59     CALM     1022.3F         2/ 5
$$

ILZ025>027-034>036-040-047-049-050-058-095>099-192300-
WEST-CENTRAL ILLINOIS

CITY           SKY/WX    TMP DP  RH WIND       PRES   REMARKS
QUINCY         SUNNY     76  51  41 S6        30.11S
GALESBURG*     SUNNY     80  61  52 SE6       30.12F HX  81
MACOMB*        SUNNY     77  51  40 S8        30.13S
JACKSONVILLE*  SUNNY     77  50  38 S7        30.13S
PITTSFIELD*    SUNNY     76  52  42 S7        30.13F
$$

ILZ028>032-037-038-041>044-048-051>054-059>061-192300-
CENTRAL ILLINOIS

CITY           SKY/WX    TMP DP  RH WIND       PRES   REMARKS
BLOOMINGTON    SUNNY     74  54  49 S5        30.15F
DECATUR        SUNNY     76  51  41 S8        30.15S
PEORIA         SUNNY     75  53  46 SE3       30.12F
LACON*         SUNNY     74  51  45 S3        30.12S
LINCOLN*       SUNNY     78  54  42 SW5       30.13S
SPRINGFIELD    SUNNY     79  52  38 SW8       30.13S
TAYLORVILLE    SUNNY     77  49  37 SW7       30.14S
$$

ILZ033-039-045-046-055>057-062-063-192300-
EAST-CENTRAL ILLINOIS

CITY           SKY/WX    TMP DP  RH WIND       PRES   REMARKS
CHAMPAIGN      SUNNY     79  49  34 SW9       30.15S
DANVILLE*      SUNNY     75  51  42 CALM      30.13F
RANTOUL*       SUNNY     77  54  44 CALM      30.15S
MATTOON        SUNNY     75  52  44 SW6       30.15F
PARIS*         SUNNY     75  53  45 S8        30.17S
$$

ILZ079-100>102-192300-
SOUTHWEST ILLINOIS

CITY           SKY/WX    TMP DP  RH WIND       PRES   REMARKS
ALTON          SUNNY     75  54  46 SE6       30.14F
CAHOKIA*       SUNNY     82  46  28 VRB5      30.13S HX  80
SPARTA*        SUNNY     77  50  37 S7        30.16S
$$

ILZ064>066-069>071-074>076-080>082-084>086-088>090-092>094-192300-
SOUTH-CENTRAL ILLINOIS

CITY           SKY/WX    TMP DP  RH WIND       PRES   REMARKS
CARBONDALE     SUNNY     75  53  46 S9        30.17S
CAIRO*         SUNNY     75  53  46 S6        30.18S
EFFINGHAM*     SUNNY     77  50  38 SE5       30.17S
MARION         SUNNY     75  54  46 SW12      30.18S
MT. VERNON     SUNNY     76  53  44 SW9       30.17S
CENTRALIA*     SUNNY     79  51  38 S8        30.15S
SALEM*         SUNNY     79  48  33 SE5       30.16R
METROPOLIS*    SUNNY     76  52  42 S6        30.19S
$$

ILZ067-068-072-073-078-083-087-091-192300-
SOUTHEAST ILLINOIS

CITY           SKY/WX    TMP DP  RH WIND       PRES   REMARKS
LAWRENCEVILLE  SUNNY     76  52  43 S6        30.18S
FLORA*         SUNNY     78  53  41 SW6       30.17S
FAIRFIELD*     SUNNY     77  50  38 S3        30.16S
HARRISBURG*    SUNNY     76  53  44 S6        30.18S
ROBINSON*      SUNNY     75  50  41 SW6       30.18S
CARMI*         SUNNY     77  51  40 S7        30.17S
$$

ABBREVIATIONS USED IN REMARKS
   TC - TEMPERATURE IN CELSIUS
  WCI - WIND CHILL INDEX
   HX - HEAT INDEX
  VSB - VISIBILITY
$$





USA.gov is the U.S. government's official web portal to all federal, state and local government web resources and services.